Weather History for Manhattan, KS

Change the Weather History Date:

Sunday, February 16, 2014

  Actual Average Record
Temperature  
Mean Temperature 34 °F 33 °F  
Max Temperature 45 °F 45 °F 69 °F (2011)
Min Temperature 22 °F 21 °F -2 °F (2007)
Degree Days  
Heating Degree Days 31 32  
Month to date heating degree days 729 536  
Since 1 July heating degree days 4180 3802  
Cooling Degree Days 0 0  
Month to date cooling degree days 0 0  
Year to date cooling degree days 0 0  
Moisture  
Dew Point 28 °F    
Average Humidity 79    
Maximum Humidity 96    
Minimum Humidity 62    
Precipitation  
Precipitation 0.00 in 0.04 in 0.31 in (2008)
Month to date precipitation 0.14 0.57  
Year to date precipitation 0.45 1.22  
Sea Level Pressure  
Sea Level Pressure 30.05 in    
Wind  
Wind Speed 6 mph (ESE)    
Max Wind Speed 14 mph    
Max Gust Speed 17 mph    
Visibility 10 miles    
Events      
T = Trace of Precipitation, MM = Missing Value Source: NWS Daily Summary

Daily Weather History Graph

Daily Weather History Graph

Search for Another Location

Airport:

Trip Planner

Search our weather history database for the weather conditions in past years. The results will help you decide how hot, cold, wet, or windy it might be!

Date:

Astronomy

Feb. 16, 2014 Rise Set
Actual Time 7:17 AM CST 6:05 PM CST
Civil Twilight 6:49 AM CST 6:32 PM CST
Nautical Twilight 6:18 AM CST 7:03 PM CST
Astronomical Twilight 5:47 AM CST 7:34 PM CST
Moon 8:01 PM CST (2/16) 7:48 AM CST (2/16)
Length of Visible Light 11h 42m
Length of Day
10h 48m
Full, 97% of the Moon is Illuminated
Feb 16
Full
Feb 22
Last Quarter
Mar 1
New
Mar 8
First Quarter
Mar 16
Full

Hourly Weather History & Observations

Time (CST) Temp. Windchill Dew Point Humidity Pressure Visibility Wind Dir Wind Speed Gust Speed Precip Events Conditions
12:52 AM 30.0 °F 25.2 °F 25.0 °F 82% 30.12 in 10.0 mi WNW 4.6 mph - N/A   Clear
1:52 AM 27.0 °F - 24.1 °F 89% 30.12 in 10.0 mi Calm Calm - N/A   Clear
2:52 AM 26.1 °F - 23.0 °F 88% 30.13 in 10.0 mi Calm Calm - N/A   Clear
3:52 AM 24.1 °F - 21.0 °F 88% 30.14 in 10.0 mi Calm Calm - N/A   Clear
4:52 AM 24.1 °F - 21.9 °F 91% 30.14 in 10.0 mi Calm Calm - N/A   Clear
5:52 AM 23.0 °F 18.4 °F 21.9 °F 96% 30.14 in 10.0 mi SSW 3.5 mph - N/A   Clear
6:52 AM 24.1 °F - 21.9 °F 91% 30.14 in 10.0 mi Calm Calm - N/A   Clear
7:52 AM 24.1 °F - 21.9 °F 91% 30.16 in 10.0 mi Calm Calm - N/A   Clear
8:52 AM 28.0 °F - 25.0 °F 88% 30.15 in 10.0 mi Calm Calm - N/A   Clear
9:52 AM 33.1 °F 26.1 °F 28.9 °F 85% 30.14 in 9.0 mi East 8.1 mph - N/A   Clear
10:52 AM 35.1 °F 27.9 °F 30.0 °F 82% 30.16 in 7.0 mi East 9.2 mph - N/A   Clear
11:52 AM 36.0 °F 28.5 °F 30.0 °F 79% 30.13 in 8.0 mi East 10.4 mph - N/A   Clear
12:52 PM 39.0 °F 34.0 °F 30.9 °F 73% 30.09 in 9.0 mi East 6.9 mph - N/A   Clear
1:52 PM 41.0 °F 35.8 °F 32.0 °F 70% 30.06 in 10.0 mi SE 8.1 mph - N/A   Clear
2:52 PM 42.1 °F 37.1 °F 33.1 °F 70% 30.01 in 10.0 mi East 8.1 mph - N/A   Clear
3:52 PM 44.1 °F 37.7 °F 32.0 °F 63% 29.98 in 10.0 mi SE 12.7 mph - N/A   Clear
4:52 PM 42.1 °F 35.2 °F 32.0 °F 67% 29.96 in 10.0 mi SE 12.7 mph - N/A   Clear
5:52 PM 39.0 °F 33.4 °F 32.0 °F 76% 29.96 in 8.0 mi ESE 8.1 mph - N/A   Clear
6:52 PM 37.9 °F 32.7 °F 30.9 °F 76% 29.96 in 10.0 mi East 6.9 mph - N/A   Clear
7:52 PM 37.0 °F 31.6 °F 30.9 °F 79% 29.96 in 10.0 mi East 6.9 mph - N/A   Clear
8:52 PM 36.0 °F 29.6 °F 30.9 °F 82% 29.91 in 10.0 mi East 8.1 mph - N/A   Clear
9:52 PM 35.1 °F 29.3 °F 30.9 °F 85% 29.88 in 10.0 mi ESE 6.9 mph - N/A   Clear
10:52 PM 35.1 °F 29.3 °F 30.9 °F 85% 29.86 in 10.0 mi East 6.9 mph - N/A   Clear
11:52 PM 33.1 °F 26.9 °F 30.0 °F 89% 29.83 in 10.0 mi ENE 6.9 mph - N/A   Partly Cloudy